GW1001 Weather Reports


Display with metric or nautical units.
time (UTC)temp
F
wind
direction
speed
MPH
gust
MPH
rain 1hr
in
rain 24hr
in
rain mn
in
humidity
%
barometer
mb
20260503172505 58 284 5.0 8.0 0.00 0.00 0.00 74 1013.3
20260503171504 57 257 3.0 6.0 0.00 0.00 0.00 75 1013.2
20260503171005 57 332 2.0 7.0 0.00 0.00 0.00 75 1013.2
20260503170505 57 262 2.0 7.0 0.00 0.00 0.00 75 1013.0
20260503151005 54 266 1.0 3.0 0.00 0.00 0.00 82 1012.5
20260503150504 54 270 1.0 5.0 0.00 0.00 0.00 82 1012.5
20260503131005 54 225 0.0 2.0 0.00 0.00 0.00 84 1011.0
20260503130504 54 225 1.0 2.0 0.00 0.00 0.00 84 1010.9
20260503110500 54 255 1.0 3.0 0.00 0.00 0.00 83 1011.1
20260503090500 54 215 1.0 4.0 0.00 0.00 0.00 83 1011.4
20260503081459 54 207 1.0 3.0 0.00 0.00 0.00 83 1011.8
20260503081004 54 267 2.0 3.0 0.00 0.00 0.00 83 1011.7
20260503080500 54 267 0.0 3.0 0.00 0.00 0.00 83 1011.8
20260503072005 54 247 2.0 6.0 0.00 0.00 0.00 82 1011.9
20260503071505 54 255 3.0 6.0 0.00 0.00 0.00 82 1011.9
20260503071005 54 266 0.0 3.0 0.00 0.00 0.00 82 1011.9
20260503054504 53 274 4.0 10.0 0.00 0.00 0.00 80 1012.2
20260503054005 53 275 4.0 9.0 0.00 0.00 0.00 80 1012.1
20260503053504 53 275 4.0 7.0 0.00 0.00 0.00 80 1012.2
20260503053005 53 304 3.0 8.0 0.00 0.00 0.00 80 1012.2
20260503052504 53 279 3.0 9.0 0.00 0.00 0.00 80 1012.3
20260503052005 53 244 4.0 9.0 0.00 0.00 0.00 80 1012.3
20260503051505 53 253 4.0 8.0 0.00 0.00 0.00 80 1012.4
20260503051004 53 171 4.0 8.0 0.00 0.00 0.00 80 1012.3
20260503050504 53 295 4.0 8.0 0.00 0.00 0.00 80 1012.3
20260503050006 53 286 3.0 6.0 0.00 0.00 0.00 80 1012.4
20260503045005 53 295 5.0 9.0 0.00 0.00 0.00 80 1012.3
20260503044505 53 261 4.0 8.0 0.00 0.00 0.00 80 1012.4
20260503044004 53 211 2.0 9.0 0.00 0.00 0.00 80 1012.5
20260503043504 53 263 3.0 10.0 0.00 0.00 0.00 80 1012.3
20260503043005 53 284 3.0 9.0 0.00 0.00 0.00 80 1012.1
20260503042005 53 271 3.0 8.0 0.00 0.00 0.00 79 1012.2
20260503041504 53 253 2.0 10.0 0.00 0.00 0.00 79 1012.2
20260503041005 53 273 4.0 10.0 0.00 0.00 0.00 79 1012.1
20260503035505 54 257 5.0 12.0 0.00 0.00 0.00 80 1011.8
20260503035004 54 229 6.0 11.0 0.00 0.00 0.00 80 1011.7
20260503034504 54 247 5.0 9.0 0.00 0.00 0.00 80 1011.7
20260503034005 54 241 5.0 11.0 0.00 0.00 0.00 80 1011.8
20260503033504 54 245 4.0 9.0 0.00 0.00 0.00 80 1011.6
20260503033007 54 290 3.0 11.0 0.00 0.00 0.00 80 1011.7
20260503032505 54 223 3.0 8.0 0.00 0.00 0.00 80 1011.6
20260503032005 54 238 3.0 11.0 0.00 0.00 0.00 80 1011.6
20260503031504 54 223 5.0 11.0 0.00 0.00 0.00 79 1011.5
20260503031005 54 277 5.0 8.0 0.00 0.00 0.00 79 1011.5
20260503030006 54 290 4.0 11.0 0.00 0.00 0.00 79 1011.5
20260503025505 54 233 6.0 12.0 0.00 0.00 0.00 79 1011.5
20260503025005 54 271 6.0 12.0 0.00 0.00 0.00 79 1011.5
20260503024504 55 277 6.0 11.0 0.00 0.00 0.00 78 1011.5
20260503024004 55 293 5.0 11.0 0.00 0.00 0.00 78 1011.5
20260503023005 55 241 7.0 14.0 0.00 0.00 0.00 78 1011.5
20260503022505 55 236 6.0 11.0 0.00 0.00 0.00 77 1011.5
20260503022004 55 259 5.0 12.0 0.00 0.00 0.00 77 1011.4
20260503021504 55 252 6.0 12.0 0.00 0.00 0.00 77 1011.4
20260503021004 56 234 6.0 13.0 0.00 0.00 0.00 76 1011.4
20260503020504 56 195 7.0 14.0 0.00 0.00 0.00 76 1011.4
20260503020006 56 236 7.0 14.0 0.00 0.00 0.00 75 1011.3
20260503015505 56 270 6.0 14.0 0.00 0.00 0.00 75 1011.3
20260503015005 57 237 6.0 14.0 0.00 0.00 0.00 75 1011.4
20260503014504 57 229 8.0 17.0 0.00 0.00 0.00 75 1011.5
20260503013504 57 232 9.0 15.0 0.00 0.00 0.00 74 1011.4
20260503013005 57 277 9.0 16.0 0.00 0.00 0.00 73 1011.5
20260503012505 58 198 9.0 16.0 0.00 0.00 0.00 73 1011.3
20260503012005 58 231 7.0 12.0 0.00 0.00 0.00 72 1011.4
20260503011504 58 236 9.0 16.0 0.00 0.00 0.00 72 1011.4
20260503011005 58 235 8.0 16.0 0.00 0.00 0.00 73 1011.4
20260503010504 58 216 8.0 16.0 0.00 0.00 0.00 73 1011.3
20260503010006 58 269 9.0 19.0 0.00 0.00 0.00 72 1011.3
20260503005505 58 227 10.0 17.0 0.00 0.00 0.00 71 1011.4
20260503004005 60 271 7.0 14.0 0.00 0.00 0.00 70 1011.4
20260503003504 60 235 5.0 17.0 0.00 0.00 0.00 70 1011.4
20260503003005 60 236 7.0 17.0 0.00 0.00 0.00 69 1011.4
20260503002504 61 223 7.0 15.0 0.00 0.00 0.00 69 1011.4
20260503002007 61 216 8.0 15.0 0.00 0.00 0.00 68 1011.4
20260503001504 62 264 5.0 11.0 0.00 0.00 0.00 68 1011.5
20260503001005 62 180 6.0 12.0 0.00 0.00 0.00 68 1011.6
20260503000504 62 230 7.0 12.0 0.00 0.00 0.00 67 1011.6
20260503000004 63 226 5.0 11.0 0.00 0.00 0.00 67 1011.7
20260502235504 63 269 6.0 11.0 0.00 0.00 0.00 67 1011.7
20260502235005 63 248 6.0 12.0 0.00 0.00 0.00 67 1011.7
20260502234004 63 289 6.0 11.0 0.00 0.00 0.00 68 1011.8
20260502233504 62 272 5.0 14.0 0.00 0.00 0.00 69 1011.8
20260502233005 62 245 6.0 14.0 0.00 0.00 0.00 68 1011.8
20260502232504 63 261 6.0 12.0 0.00 0.00 0.00 67 1011.9
20260502232004 63 258 6.0 12.0 0.00 0.00 0.00 67 1012.0
20260502231500 63 225 6.0 11.0 0.00 0.00 0.00 67 1011.9
20260502231005 63 250 5.0 11.0 0.00 0.00 0.00 68 1012.0
20260502230502 63 311 6.0 11.0 0.00 0.00 0.00 69 1012.1
20260502225005 63 288 6.0 12.0 0.00 0.00 0.00 68 1012.3
20260502224505 63 209 5.0 12.0 0.00 0.00 0.00 68 1012.3
20260502224005 64 255 6.0 13.0 0.00 0.00 0.00 68 1012.4
20260502223504 63 242 6.0 13.0 0.00 0.00 0.00 69 1012.5
20260502222504 63 215 6.0 11.0 0.00 0.00 0.00 70 1012.5
20260502222005 62 268 4.0 10.0 0.00 0.00 0.00 72 1012.6
20260502221504 62 209 5.0 9.0 0.00 0.00 0.00 73 1012.7
20260502221005 61 225 5.0 9.0 0.00 0.00 0.00 73 1012.7
20260502220504 61 300 5.0 9.0 0.00 0.00 0.00 73 1012.8
20260502220005 61 224 4.0 9.0 0.00 0.00 0.00 73 1012.8
20260502215505 61 243 4.0 8.0 0.00 0.00 0.00 74 1012.9
20260502215005 61 229 5.0 9.0 0.00 0.00 0.00 74 1013.0
20260502214504 61 260 4.0 11.0 0.00 0.00 0.00 74 1013.0
20260502214005 61 218 4.0 11.0 0.00 0.00 0.00 75 1012.9
20260502213505 61 275 6.0 9.0 0.00 0.00 0.00 74 1013.0
20260502213005 61 209 5.0 12.0 0.00 0.00 0.00 75 1013.0
20260502212504 61 226 7.0 12.0 0.00 0.00 0.00 74 1013.0
20260502212005 61 222 5.0 9.0 0.00 0.00 0.00 74 1013.1
20260502211505 62 284 2.0 7.0 0.00 0.00 0.00 75 1013.2
20260502211005 62 185 2.0 6.0 0.00 0.00 0.00 74 1013.1
20260502210504 62 231 3.0 6.0 0.00 0.00 0.00 75 1013.2
20260502210005 61 242 2.0 7.0 0.00 0.00 0.00 75 1013.2
20260502205505 61 213 2.0 7.0 0.00 0.00 0.00 75 1013.2
20260502205005 61 233 3.0 8.0 0.00 0.00 0.00 75 1013.3
20260502204504 62 234 4.0 8.0 0.00 0.00 0.00 74 1013.3
20260502203504 62 271 3.0 7.0 0.00 0.00 0.00 75 1013.3
20260502203005 61 200 2.0 5.0 0.00 0.00 0.00 75 1013.3
20260502202504 61 227 3.0 5.0 0.00 0.00 0.00 75 1013.4
20260502202005 61 128 2.0 10.0 0.00 0.00 0.00 75 1013.4
20260502201505 61 211 3.0 12.0 0.00 0.00 0.00 75 1013.3
20260502201005 61 96 6.0 12.0 0.00 0.00 0.00 75 1013.4
20260502200505 61 107 7.0 11.0 0.00 0.00 0.00 76 1013.4
20260502200005 62 132 6.0 13.0 0.00 0.00 0.00 75 1013.3
20260502195505 62 107 9.0 14.0 0.00 0.00 0.00 75 1013.3
20260502195007 62 101 10.0 14.0 0.00 0.00 0.00 74 1013.4
20260502194007 62 104 8.0 13.0 0.00 0.00 0.00 74 1013.4
20260502193504 62 113 7.0 12.0 0.00 0.00 0.00 74 1013.4
20260502193007 62 111 8.0 12.0 0.00 0.00 0.00 73 1013.5
20260502192008 63 105 5.0 10.0 0.00 0.00 0.00 74 1013.5
20260502191504 62 52 4.0 9.0 0.00 0.00 0.00 74 1013.5
20260502191005 62 126 4.0 9.0 0.00 0.00 0.00 74 1013.7
20260502190505 62 111 3.0 7.0 0.00 0.00 0.00 75 1013.7
20260502190005 61 113 2.0 7.0 0.00 0.00 0.00 74 1013.7
20260502185504 62 97 4.0 6.0 0.00 0.00 0.00 74 1013.6
20260502185007 62 236 3.0 5.0 0.00 0.00 0.00 73 1013.6
20260502184504 62 102 1.0 4.0 0.00 0.00 0.00 75 1013.6
20260502184009 61 103 1.0 5.0 0.00 0.00 0.00 76 1013.6
20260502183503 60 76 3.0 5.0 0.00 0.00 0.00 75 1013.7
20260502182004 59 287 1.0 4.0 0.00 0.00 0.00 77 1013.7
20260502181505 59 142 1.0 4.0 0.00 0.00 0.00 77 1013.7
20260502180504 59 49 2.0 4.0 0.00 0.00 0.00 77 1013.8